User: anonymous   Login
Location: Unspecified
(0.0000°N, 0.0000°E)
Time: 07:24:40
(UTC+00:00)
Language:

CBERS-4 - Orbit

View from above orbital plane
View from above orbital plane
View from above satellite
View from above satellite

Ground track
Ground track

The orbit data is extracted from the following two-line orbital elements,

1 40336U 14079A   23266.80655545  .00000218  00000-0  90772-4 0  9994
2 40336  98.4349 336.6426 0001874  80.9772 279.1625 14.35466192460887
Epoch (UTC): 23 September 2023 19:21:26
Eccentricity: 0.0001874
inclination: 98.4349°
perigee height: 772 km
apogee height: 775 km
right ascension of ascending node: 336.6426°
argument of perigee: 80.9772°
revolutions per day: 14.35466192
mean anomaly at epoch: 279.1625°
orbit number at epoch: 46088

The dashed part of the orbit path shows where the satellite is in the earth's shadow,  

DLR